FENGYUN 1C DEB, 32207

Orbit data source: Space-Track

FENGYUN 1C DEB, 32207 is space debris in SSO originally from a launch on Mon, 10 May 1999 UTC launched from the Taiyaun Space Center, China (TSC). Fengyun 1C debris stems from the Chinese weather satellite Fengyun-1C, which was intentionally destroyed by a Chinese anti-satellite missile in 2007. This event dramatically increased the amount of space debris, with thousands of trackable fragments posing hazards to satellites and human spaceflight. The Fengyun 1C debris cloud has become a focal point in discussions about space sustainability and the need for international regulations to prevent the creation of new debris.

Loading next visibility...
Identifier
32207, 1999-025CVD
Orbit
SSO
Country
Flag of CNCN / PRC
Related business
Manufacturer
Unknown
Mission
Spacecraft
Bus & Motor
Unknown
Mass
Unknown
Launch date (UTC)
1999-05-10 (27 years ago)
Launch vehicle
Unknown
Launch site
Taiyaun Space Center, China (TSC)
Object type
Payload
Rocket body
Debris
Shape & HBR
Unknown shape, 0.1 m
Radar Cross Section
Small (<0.1 m²)

Expand to show TLE details & history
Last TLE update: 4 days ago

TLE from 4 days ago
0 FENGYUN 1C DEB
1 32207U 99025CVD 26204.80280405  .00000537  00000-0  18126-3 0  9996
2 32207  99.8762 202.3960 0083718 217.8234 267.5387 14.40096885675172
Epoch: 2026-07-23T19:16Z
TLE epoch observation values (Epoch: 2026-07-23T19:16:02.269Z)
Latitude
54.47728°
Longitude
165.88655°
Altitude
770.165 km
Speed
7.473 km/s
True Right ascension
02h 25m 44s
True Declination
54° 18' 53"
Sunlit
Object was in daylight at epoch
Visualization orbit readout
Latitude
Unknown
Longitude
Unknown
Altitude
Unknown
Speed
Unknown
Apparent Right ascension
Unknown
Apparent Declination
Unknown
Sunlit
N/A
Visualization observer readout
Local Sidereal Time
07:11:35
Azimuth
Unknown
Elevation
Unknown
Doppler factor
Unknown
Orbital elements
Apogee altitude
815.09 km
Perigee altitude
695.65 km
Semi-major axis
7,133.507 km
Eccentricity
0.00837
Inclination
99.8762°
RAAN
202.396°
Arg. of periapsis
217.8234°
True anomaly
266.58072°
Mean anomaly
267.5387°
Eccentric anomaly
267.05966°
Mean motion
3.60237 °/min
Orbital period
99.93 mins
BSTAR
0.00018126
Loading maneuver chart data...
Computing Atmospheric mass density...

Documentation

Showing up to 5 results
|